Skip Page Navigation
NASA JPL Caltech
NASA Logo - Jet Propulsion Laboratory + View the NASA Portal
+ Center for Near-Earth Object Studies
JPL Home Earth Solar System Stars & Galaxies Technology
JPL Solar System Dynamics
BODIES ORBITS EPHEMERIDES TOOLS PHYSICAL DATA DISCOVERY FAQ SITE MAP
IMPORTANT: The SSD Announcement email list is now available. Major changes are coming in the near future, including possible hostname and/or URL changes. To be notified of such changes, subscribe to this email list.

Please visit this page for more details.


JPL Small-Body Database Browser
Search: [ help ]  
71392 (2000 AV162)
Classification: Main-belt Asteroid          SPK-ID: 2071392
Ephemeris | Orbit Diagram | Orbital Elements | Mission Design | Physical Parameters | Discovery Circumstances ]

[ show orbit diagram ]
Orbital Elements at Epoch 2458600.5 (2019-Apr-27.0) TDB
Reference: JPL 17 (heliocentric ecliptic J2000)
 Element Value Uncertainty (1-sigma)   Units 
e .1399649133912534 1.0047e-07  
a 2.588980244204688 2.4365e-08 au
q 2.226613848552913 2.5099e-07 au
i 13.40209341497778 7.6915e-06 deg
node 75.15197985220182 2.2024e-05 deg
peri 1.16827384105704 2.8901e-05 deg
M 214.4976871284005 2.3484e-05 deg
tp 2459215.477076551141
(2020-Dec-31.97707655)
0.00010441 TDB
period 1521.568579832687
4.17
2.1479e-05
5.881e-08
d
yr
n .2365979455487875 3.3399e-09 deg/d
Q 2.951346639856463 2.7775e-08 au
  Orbit Determination Parameters
   # obs. used (total)      520  
   data-arc span      8235 days (22.55 yr)  
   first obs. used      1995-12-24  
   last obs. used      2018-07-11  
   planetary ephem.      DE431  
   SB-pert. ephem.      SB431-N16  
   condition code      0  
   norm. resid. RMS      .551  
   source      ORB  
   producer      Otto Matic  
   solution date      2018-Oct-04 02:15:02  

Additional Information
 Earth MOID = 1.24171 au 
 Jupiter MOID = 2.32365 au 
 T_jup = 3.369 
[ show covariance matrix ]

Ephemeris | Orbit Diagram | Orbital Elements | Mission Design | Physical Parameters | Discovery Circumstances ]

Physical Parameter Table
Parameter Symbol Value Units Sigma Reference Notes
absolute magnitude H 15.0   n/a MPO432267  
diameter diameter 5.185 km 0.241 urn:nasa:pds:neowise_diameters_albedos::2.0[mainbelt] (http://adsabs.harvard.edu/abs/2011ApJ...741...68M)  
geometric albedo albedo 0.072   0.009 urn:nasa:pds:neowise_diameters_albedos::2.0[mainbelt] (http://adsabs.harvard.edu/abs/2011ApJ...741...68M)  

71392 (2000 AV162)          Discovered 2000-Jan-05 by LINEAR at Socorro
Reference: 20031109/Numbers.arcLast Updated: 2004-04-19

Alternate Designations
 2000 AV162 = 1995 YO24 
Ephemeris | Orbit Diagram | Orbital Elements | Mission Design | Physical Parameters | Discovery Circumstances ]
ABOUT SSD CREDITS/AWARDS PRIVACY/COPYRIGHT GLOSSARY LINKS
FirstGov 2019-Oct-18 00:06 UT
(server date/time)  
NASA Home Page
Site Manager:   Ryan S. Park
Webmaster  Alan B. Chamberlin